Regional Weather Roundup
Issued by NWS

Home | Current Version | Previous Version | Graphics & Text | Print | Product List | Glossary On
Versions: 1 2 3 4 5 6 7 8 9 10 11 12 13 14 15 16 17 18 19 20 21 22 23 24 25 26 27 28 29 30 31 32 33 34 35 36 37 38 39 40 41 42 43 44 45 46 47 48 49 50
924
ASUS43 KOAX 261402
RWRNE

WEATHER ROUNDUP FOR NEBRASKA
NATIONAL WEATHER SERVICE OMAHA NE
900 AM CDT MON SEP 26 2016

NOTES: SATELLITE DATA IS BEING USED TO AUGMENT CLOUD COVER ABOVE
       12000 FEET.
       "FAIR" INDICATES FEW OR NO CLOUDS BELOW 12,000 FEET WITH NO
       SIGNIFICANT WEATHER AND/OR OBSTRUCTIONS TO VISIBILITY.

  * THESE STATIONS DO NOT REPORT WEATHER SUCH AS RAIN...SNOW OR FOG.

NEZ001>004-019>022-054>056-261500-
NEBRASKA PANHANDLE

CITY           SKY/WX    TMP DP  RH WIND       PRES   REMARKS
SCOTTSBLUFF    SUNNY     42  38  85 NW10      30.38R
ALLIANCE       SUNNY     40  37  89 W6        30.34R
CHADRON        SUNNY     47  38  71 W5        30.32S
KIMBALL        SUNNY     47  39  74 W7        30.40R
SIDNEY         SUNNY     46  38  73 W9        30.38S
$$

NEZ057>060-069>072-079>082-261500-
SOUTHWEST NEBRASKA

CITY           SKY/WX    TMP DP  RH WIND       PRES   REMARKS
NORTH PLATTE   SUNNY     46  36  68 W3        30.35S
IMPERIAL       SUNNY     44  36  73 W8        30.37S
LEXINGTON      SUNNY     44  36  72 W5        30.34S
MCCOOK         SUNNY     43  38  82 W9        30.37S
OGALLALA       SUNNY     41  38  88 CALM      30.36S
$$

NEZ005>010-023>029-035>040-094-261500-
NORTH CENTRAL NEBRASKA

CITY           SKY/WX    TMP DP  RH WIND       PRES   REMARKS
VALENTINE      SUNNY     45  33  63 SW7       30.28S
AINSWORTH      SUNNY     50  37  60 W8        30.28F
BROKEN BOW     SUNNY     49  35  58 W6        30.30F
O`NEILL        SUNNY     53  35  51 W9        30.25F
ORD            SUNNY     45  36  70 CALM      30.29S
THEDFORD       MOSUNNY   45  38  75 CALM      30.31F
$$

NEZ041-046>049-061>064-073>077-083>087-261500-
SOUTH CENTRAL NEBRASKA

CITY           SKY/WX    TMP DP  RH WIND       PRES   REMARKS
GRAND ISLAND   SUNNY     50  37  61 W9        30.30F
AURORA         SUNNY     49  40  71 W5        30.30S
HASTINGS       SUNNY     51  36  56 W7        30.32S
HEBRON         SUNNY     48  41  76 CALM      30.31S
HOLDREGE       SUNNY     48  35  61 W5        30.34S
KEARNEY *      SUNNY     48  36  61 CALM      30.32S
YORK           SUNNY     50  39  66 W7        30.29F
$$

NEZ011>018-030>034-042>045-261500-
NORTHEAST NEBRASKA

CITY           SKY/WX    TMP DP  RH WIND       PRES   REMARKS
NORFOLK        SUNNY     50  36  58 W10       30.24F
ALBION         SUNNY     50  41  72 NW5       30.27S
BLAIR          SUNNY     51  41  69 W7        30.24R
FREMONT        SUNNY     51  40  66 W10       30.26S
TEKAMAH        SUNNY     54  38  54 W13       30.23R
WAYNE          SUNNY     52  40  63 W12       30.24S
$$

NEZ050>053-065>068-078-088>093-261500-
SOUTHEAST NEBRASKA

CITY           SKY/WX    TMP DP  RH WIND       PRES   REMARKS
LINCOLN        SUNNY     53  43  68 CALM      30.28S
OMAHA EPPLEY   SUNNY     56  40  55 W6        30.24S
BEATRICE       SUNNY     49  43  79 W5        30.28F
FALLS CITY     SUNNY     52  44  74 W7        30.25S
NEBRASKA CITY  MOSUNNY   54  33  44 W8        30.25S
PLATTSMOUTH    MOSUNNY   53  38  55 W5        30.24F
$$

NEZ044-045-051>053-067-261500-
OMAHA AREA

CITY           SKY/WX    TMP DP  RH WIND       PRES   REMARKS
OMAHA EPPLEY   SUNNY     56  40  55 W6        30.24S
BLAIR          SUNNY     51  41  69 W7        30.24R
FREMONT        SUNNY     51  40  66 W10       30.26S
MILLARD        SUNNY     54  41  60 NW9       30.25S
OFFUTT AFB     SUNNY     53  42  67 W10       30.24R
PLATTSMOUTH    MOSUNNY   53  38  55 W5        30.24F
WAHOO          FAIR      55  40  58 W3        30.25S
$$




USA.gov is the U.S. government's official web portal to all federal, state and local government web resources and services.